Location: Clegg Observatory
(38.9178°N, 78.6069°W)
Time: 12:47:31
(UTC-04:00)

Cosmos 1151 Rocket - Visible Passes

Search period start: 18 April 2014 00:00
Search period end: 28 April 2014 00:00
Orbit: 595 x 619 km, 82.5° (Epoch: 17 April)

Date Brightness Start Highest point End Pass type
(mag) Time Alt. Az. Time Alt. Az. Time Alt. Az.
18 Apr 4.7 04:23:21 10° NNE 04:27:16 33° ENE 04:31:08 10° SE visible
18 Apr 4.5 06:01:43 10° NW 06:04:34 18° W 06:07:25 10° SW visible
19 Apr 3.5 04:36:36 10° N 04:40:52 59° E 04:45:03 10° SSE visible
20 Apr 2.8 04:50:05 10° N 04:54:23 77° W 04:57:53 15° S visible
21 Apr 5.8 03:27:38 10° NE 03:30:00 14° ENE 03:32:21 10° ESE visible
21 Apr 3.4 05:03:47 10° NNW 05:07:50 42° W 05:10:17 21° SSW visible
22 Apr 5.1 03:40:12 10° NNE 03:43:43 24° ENE 03:46:01 16° ESE visible
22 Apr 4.1 05:17:45 10° NW 05:21:13 24° W 05:22:52 19° WSW visible
23 Apr 4.1 03:53:16 10° N 03:57:21 41° ENE 03:58:44 31° ESE visible
23 Apr 4.7 05:32:17 10° NW 05:34:31 14° W 05:35:35 13° WSW visible
24 Apr 3.0 04:06:37 10° N 04:10:54 75° E 04:11:33 61° SE visible
25 Apr 6.0 02:45:47 10° ENE 02:46:21 10° ENE 02:46:55 10° ENE visible
25 Apr 2.9 04:20:10 10° NNW 04:24:23 60° W 04:24:27 60° W visible
26 Apr 5.4 02:57:12 10° NNE 03:00:06 18° ENE 03:00:33 17° E visible
26 Apr 3.8 04:33:57 10° NNW 04:37:25 33° W 04:37:25 33° W visible
27 Apr 4.7 03:10:01 10° NNE 03:13:34 29° ENE 03:13:34 29° ENE visible
27 Apr 4.6 04:48:05 10° NW 04:50:26 19° WNW 04:50:26 19° WNW visible
